Dewpoint
58 58 55 53 52 53 54 52 51 51 51 51 50 50 50 52 51 52 52 53 52 51 50 51 50 50 50 51 49 45 47 51 49 50 50 49 49 52 51 50 52 48
58 58 55 54 52 53 54 53 53 51 52 53 51 50 52 52 53 53 52 52 52 52 50 50 50 49 49 49 50 48 47 50 48 44 49 49 48 50 52 51 51 48
60 59 58 56 55 56 56 56 55 53 52 52 53 52 52 54 53 53 53 52 52 53 53 51 50 50 49 50 50 49 49 48 49 48 48 47 49 49 50 50 51 49
61 60 59 58 57 58 58 57 54 54 55 53 52 52 53 53 54 54 53 52 52 53 54 54 53 50 48 49 50 49 49 49 48 50 49 49 48 48 49 49 49 48
61 60 59 57 55 55 56 56 56 55 55 54 53 53 53 54 54 53 53 53 53 53 54 53 53 53 53 51 50 50 50 50 51 49 48 48 49 50 49 49 50 48
60 58 57 58 55 54 52 52 52 52 53 55 54 52 53 53 52 52 53 53 52 53 53 53 53 54 53 53 53 53 51 49 51 50 48 48 48 48 44 48 48 46
60 58 58 58 57 55 54 53 51 51 52 54 52 53 53 52 52 52 51 52 52 52 52 54 54 54 54 54 53 53 53 52 51 49 48 48 47 47 47 47 45 43
59 59 58 59 59 56 53 52 52 51 54 55 53 52 52 51 50 52 52 53 51 52 53 52 53 53 54 55 53 54 54 54 53 51 52 50 52 48 46 47 49 46
58 58 59 60 60 57 53 50 52 53 52 54 54 53 52 51 51 52 52 52 52 52 52 53 53 54 56 55 55 55 54 55 55 53 53 53 52 51 49 49 49 48
60 60 60 61 60 57 56 52 54 54 53 53 52 54 53 53 52 51 51 52 52 52 51 52 53 55 55 55 54 55 55 55 54 55 54 54 54 52 50 51 53 52
60 60 61 61 60 58 57 54 53 53 54 51 51 50 50 52 52 51 52 51 53 51 51 52 53 55 55 55 56 56 55 56 55 55 57 55 55 54 56 54 54 54
60 60 61 60 59 58 57 55 54 54 54 53 51 50 51 52 52 51 51 50 51 52 52 53 54 55 57 57 56 56 57 56 55 55 55 55 55 56 57 55 57 54
59 60 60 60 61 61 61 59 54 54 52 51 52 52 51 52 51 52 53 53 52 54 53 54 54 58 57 55 56 56 56 56 56 56 56 56 56 54 54 56 58 58
61 61 60 60 60 59 58 59 58 59 56 52 52 53 53 53 52 53 55 53 54 53 53 53 54 54 55 55 55 55 55 56 57 58 58 58 59 56 55 55 55 56
59 59 59 57 57 57 58 59 59 59 59 60 56 54 58 56 58 54 54 54 54 54 53 55 56 57 59 60 58 55 56 57 58 58 58 58 57 56 57 57 57 57
59 58 57 56 58 58 58 59 58 59 59 58 58 59 58 57 56 56 57 58 58 56 57 59 59 58 50 45 47 58 57 57 58 59 57 58 55 56 57 58 57 57
56 56 55 56 57 56 58 57 55 58 57 57 56 57 57 56 56 56 57 56 54 56 58 57 59 54 41 40 43 44 57 60 58 57 58 57 58 56 55 57 57 55
55 56 55 56 56 55 56 56 57 57 56 56 56 57 57 58 58 56 56 57 58 57 58 57 55 39 40 41 41 42 44 55 54 53 53 51 52 52 54 55 55 53
55 53 55 56 56 56 57 57 55 56 55 56 56 58 58 57 57 58 57 58 57 57 56 54 52 36 39 39 41 42 43 48 50 50 48 49 50 49 48 48 47 48
55 54 55 55 56 56 56 55 54 55 58 57 58 57 57 58 58 59 58 56 57 55 50 49 50 36 37 38 40 40 41 43 49 48 49 48 48 48 48 48 48 47
48 48 50 52 53 54 54 54 55 56 56 55 57 57 56 57 57 56 57 54 51 50 49 48 52 36 38 38 38 39 41 39 50 47 47 48 49 51 50 50 49 51
41 42 44 46 47 49 50 51 53 53 54 54 53 54 52 52 51 51 51 49 49 48 46 45 51 37 39 41 40 40 39 54 48 47 47 47 49 49 49 50 52 51
39 40 41 42 42 43 44 47 48 48 49 49 50 49 48 47 48 48 47 46 46 46 46 45 49 43 39 40 39 38 40 55 43 44 46 47 48 49 50 50 49 49
38 38 39 40 40 41 42 43 44 45 45 45 45 44 45 45 45 44 44 43 44 45 45 44 47 45 38 39 38 39 40 53 44 43 43 44 45 46 48 46 44 44
39 39 40 39 39 41 44 42 42 42 42 42 42 42 43 43 42 42 42 42 43 45 49 47 47 46 37 37 38 38 45 50 44 39 43 43 44 44 46 46 43 40
41 40 41 40 39 40 43 42 41 42 45 43 44 40 39 39 39 40 41 42 44 46 45 47 47 48 48 37 39 39 39 48 45 38 39 41 41 39 43 44 43 41